Regional Weather Roundup
Issued by NWS

Home | Current Version | Previous Version | Graphics & Text | Print | Product List | Glossary On
Versions: 1 2 3 4 5 6 7 8 9 10 11 12 13 14 15 16 17 18 19 20 21 22 23 24 25 26 27
000
ASUS45 KCYS 270510
RWRWY

WYOMING REGIONAL WEATHER ROUNDUP
NATIONAL WEATHER SERVICE CHEYENNE WY
1100 PM MDT FRI MAY 26 2017

NOTE:  "FAIR" INDICATES FEW OR NO CLOUDS BELOW 12,000 FEET
WITH NO SIGNIFICANT WEATHER AND/OR OBSTRUCTIONS TO VISIBILITY.

WYZ001-270600-
YELLOWSTONE NATIONAL PARK

CITY           SKY/WX    TMP DP  RH WIND       PRES   REMARKS
LK YELLOWSTONE   N/A     30  30 100 CALM      30.13R
W YELLOWSTONE  NOT AVBL

$$
WYZ002>013-054>058-071-098>099-270600-
NORTHERN WYOMING

CITY           SKY/WX    TMP DP  RH WIND       PRES   REMARKS
JACKSON        FAIR      37  36  93 N5        30.09R WCI  34
CODY           FAIR      42  37  82 CALM      30.07R
GREYBULL       FAIR      50  41  71 CALM      30.02R
WORLAND        MOCLDY    46  44  93 S8        30.03R
SHERIDAN       CLOUDY    46  42  86 S5        30.01S
BUFFALO        LGT RAIN  46  40  79 W7        30.05S
GILLETTE       CLOUDY    47  45  93 SW3       30.02S
HULETT         CLOUDY    50  41  71 SW7       30.01S
NEWCASTLE      DRIZZLE   45  45 100 CALM      30.03S

$$
WYZ014>020-022>026-101>103-270600-
CENTRAL WYOMING

CITY           SKY/WX    TMP DP  RH WIND       PRES   REMARKS
BIG PINEY      FAIR      35  31  85 N10       30.08R WCI  27
PINEDALE       FAIR      32  32 100 W6        30.08R WCI  26
DUBOIS         CLOUDY    36  34  93 CALM      30.08R
LANDER         CLOUDY    43  40  89 W5        30.05R
RIVERTON       CLOUDY    44  40  85 N3        30.06R
CASPER         CLOUDY    44  41  89 CALM      30.04R
DOUGLAS        CLOUDY    45  42  89 NE7       30.02R

$$
WYZ021-027>030-104>119-270600-
SOUTHERN WYOMING

CITY           SKY/WX    TMP DP  RH WIND       PRES   REMARKS
EVANSTON       FAIR      40  31  70 W13       30.08R WCI  32
KEMMERER         N/A     37  32  81 CALM      30.08R
FORT BRIDGER   FAIR      39  30  70 W7        30.09R WCI  34
ROCK SPRINGS   FAIR      41  36  82 SE5       30.08R
DIXON          LGT RAIN  44  39  82 E12       30.09R
RAWLINS        MOCLDY    41  38  89 E7        30.04F
SARATOGA       CLOUDY    37  37 100 SE3       30.08R
LARAMIE        FAIR      38  36  92 N8        30.04F WCI  32
CHEYENNE       CLOUDY    44  43  96 N20G25    30.04F
TORRINGTON     MOCLDY    48  46  93 SE5       29.99F
PINE BLUFFS    CLOUDY    46  46 100 N20G25    30.03R VSB 3/4

$$




USA.gov is the U.S. government's official web portal to all federal, state and local government web resources and services.